Retour au catalogue

STARLINK-37218

ActifCommunicationsSSO
NORAD 68403·PAYLOAD·🇺🇸 United States

Lancé Mar 26, 2026 depuis Vandenberg Space Force Base

Loading…

Prochains Passages (prochaines 24 heures)

TLE

FraisSource: CelesTrak SupGP

Époque: Sep 15, 2026, 03:39 UTC

1 68403C 26063Z   26258.15256944 -.00005784  00000+0 -17957-3 0  2582
2 68403  97.2862  42.1311 0001118  90.2801  98.8191 15.33440666    15

Suivez STARLINK-37218 en temps réel avec AllMySat

Download on the App Store